This is the latest recevied weather packets stored in our database for station/object NE1CU. If no packets are shown the sender has not sent any weather packets the latest 10 day(s).
| Time | Temp. | Humidity | Pressure | Rain* | Wind** | Luminosity | Snow |
|---|---|---|---|---|---|---|---|
| 1777418411 | 14.44° C | 62% | 1018.3 hPa | 0 mm | - | 17 W/m² | - |
| 1777418106 | 14.44° C | 61% | 1018.3 hPa | 0 mm | - | 18 W/m² | - |
| 1777417803 | 14.44° C | 61% | 1018 hPa | 0 mm | - | 16 W/m² | - |
| 1777417498 | 14.44° C | 60% | 1018.2 hPa | 0 mm | - | 17 W/m² | - |
| 1777417195 | 15° C | 59% | 1018 hPa | 0 mm | - | 18 W/m² | - |
| 1777416890 | 15° C | 58% | 1018 hPa | 0 mm | - | 21 W/m² | - |
| 1777416586 | 15° C | 56% | 1018.1 hPa | 0 mm | - | 25 W/m² | - |
| 1777416283 | 15° C | 55% | 1018.2 hPa | 0 mm | - | 27 W/m² | - |
| 1777415982 | 15.56° C | 52% | 1018.2 hPa | 0 mm | - | 30 W/m² | - |
| 1777415678 | 15.56° C | 51% | 1018.1 hPa | 0 mm | - | 32 W/m² | - |
| 1777415373 | 15.56° C | 49% | 1018.1 hPa | 0 mm | - | 36 W/m² | - |
| 1777415073 | 15.56° C | 48% | 1018 hPa | 0 mm | - | 42 W/m² | - |
| 1777414773 | 15.56° C | 49% | 1018.1 hPa | 0 mm | - | 46 W/m² | - |
| 1777414469 | 15.56° C | 49% | 1018 hPa | 0 mm | - | 50 W/m² | - |
| 1777414168 | 16.11° C | 49% | 1018.1 hPa | 0 mm | - | 52 W/m² | - |
| 1777413864 | 16.11° C | 48% | 1018.4 hPa | 0 mm | - | 51 W/m² | - |
| 1777413559 | 16.67° C | 49% | 1018.2 hPa | 0 mm | - | 50 W/m² | - |
| 1777413256 | 16.67° C | 49% | 1018.1 hPa | 0 mm | - | 52 W/m² | - |
| 1777412951 | 16.67° C | 47% | 1018 hPa | 0 mm | - | 55 W/m² | - |
| 1777412650 | 17.22° C | 45% | 1018.1 hPa | 0 mm | - | 62 W/m² | - |
| 1777412349 | 17.22° C | 41% | 1018.2 hPa | 0 mm | - | 77 W/m² | - |
| 1777412043 | 17.22° C | 41% | 1018.1 hPa | 0 mm | - | 97 W/m² | - |
| 1777411743 | 17.22° C | 40% | 1018.2 hPa | 0 mm | - | 108 W/m² | - |
| 1777411438 | 17.78° C | 40% | 1018.2 hPa | 0 mm | - | 117 W/m² | - |
| 1777411133 | 17.78° C | 40% | 1018.4 hPa | 0 mm | - | 136 W/m² | - |
* Rain latest hour (hover to see other rain measurements)
** Current wind speed in m/s (hover to see current wind gust speed)